Regional Weather Roundup
Issued by NWS

Home | Current Version | Previous Version | Text Only | Print | Product List | Glossary Off
Versions: 1 2 3 4 5 6 7 8 9 10 11 12 13 14 15 16 17 18 19 20 21 22 23 24 25 26 27 28 29 30 31 32 33 34 35 36 37 38 39 40 41 42 43 44 45 46 47 48 49 50

000
ASUS43 KDTX 010001
RWRMI
MICHIGAN HOURLY REGIONAL WEATHER ROUNDUP
NATIONAL WEATHER SERVICE DETROIT/PONTIAC MI
800 PM EDT SUN APR 30 2017

NOTE: "FAIR" INDICATES FEW OR NO CLOUDS BELOW 12,000 FEET WITH NO
SIGNIFICANT WEATHER AND/OR OBSTRUCTION TO VISIBILITY.

MIZ047>049-052>055-059>063-066>070-074>076-081>083-010100-
SOUTHEAST LOWER MICHIGAN

CITY           SKY/WX    TMP DP  RH WIND       PRES   REMARKS
ADRIAN         CLOUDY    56  55  97 E6        29.81F
6HR MIN TEMP:  50; 6HR MAX TEMP:  58; 6HR PCP:  0.06;

ALMA           LGT RAIN  41  41  99 NE10      29.86F
ANN ARBOR      CLOUDY    56  55  97 NE3       29.81F
BAD AXE        CLOUDY    39  38  97 NE10      29.88R WCI  32
6HR MIN TEMP:  38; 6HR MAX TEMP:  39;

CARO           CLOUDY    40  40  99 N6        29.86F
DETROIT CITY   LGT RAIN  52  51  97 SE8       29.84S FOG
6HR MIN TEMP:  48; 6HR MAX TEMP:  54; 6HR PCP:  0.02;

DETROIT        CLOUDY    55  53  93 E3        29.83R FOG
6HR MIN TEMP:  50; 6HR MAX TEMP:  58; 6HR PCP:  0.04;

FLINT          CLOUDY    46  45  96 NE9       29.85R FOG
6HR MIN TEMP:  42; 6HR MAX TEMP:  49; 6HR PCP:  0.08;

GROSSE ILE     CLOUDY    52  51  96 CALM      29.82S FOG
6HR MIN TEMP:  51; 6HR MAX TEMP:  55; 6HR PCP:  0.18;

HILLSDALE      CLOUDY    59  55  88 SE5       29.78F FOG
HOWELL         CLOUDY    55  52  91 N3        29.83R FOG
6HR MIN TEMP:  47; 6HR MAX TEMP:  55; 6HR PCP:  0.10;


CITY           SKY/WX    TMP DP  RH WIND       PRES   REMARKS
JACKSON        CLOUDY    58  56  93 SE6       29.80S FOG
6HR MIN TEMP:  50; 6HR MAX TEMP:  58; 6HR PCP:  0.16;

LAMBERTVILLE   CLOUDY    52  51  97 CALM      29.81F FOG
6HR MIN TEMP:  51; 6HR MAX TEMP:  54;

LANSING        CLOUDY    44  41  89 NE8       29.83F FOG
6HR MIN TEMP:  44; 6HR MAX TEMP:  48; 6HR PCP:  0.02;

LAPEER         CLOUDY    49  48  97 N5        29.84R FOG
6HR MIN TEMP:  43; 6HR MAX TEMP:  49; 6HR PCP:  0.10;

MASON          CLOUDY    49  49  99 N8        29.82S FOG
MONROE         LGT RAIN  53  52  97 E5        29.81F
6HR MIN TEMP:  51; 6HR MAX TEMP:  56; 6HR PCP:  0.09;

MT. CLEMENS    CLOUDY    54  54 100 SE8       29.82F
6HR MIN TEMP:  49; 6HR MAX TEMP:  55; 6HR PCP:  0.08;

PONTIAC        CLOUDY    53  50  89 SE6       29.82S
6HR MIN TEMP:  46; 6HR MAX TEMP:  53; 6HR PCP:  0.08;

PORT HOPE        N/A     40  38  93 NE23      29.86F WCI  30
6HR MIN TEMP:  39; 6HR MAX TEMP:  40; 6HR PCP:  0.76;

PORT HURON     CLOUDY    52  50  93 CALM      29.83F
TRI CITIES     LGT RAIN  42  41  96 NE17      29.87F FOG
6HR MIN TEMP:  41; 6HR MAX TEMP:  43; 6HR PCP:  0.13;

MIDLAND        DRIZZLE   41  39  93 NE7       29.88R
6HR MIN TEMP:  41; 6HR MAX TEMP:  42; 6HR PCP:  0.20;

TROY           DRIZZLE   53  50  87 CALM      29.85R
SAGINAW HB     DRIZZLE   41  37  87 NE15      29.85F
$$
MIZ043>046-050>051-056>058-064>065-071>073-077>080-010100-
SOUTHWEST LOWER MICHIGAN

CITY           SKY/WX    TMP DP  RH WIND       PRES   REMARKS
BATTLE CREEK   CLOUDY    53  52  96 NE8       29.79S FOG
6HR MIN TEMP:  49; 6HR MAX TEMP:  65; 6HR PCP:  0.02;

BENTON HARBOR  LGT RAIN  54  51  90 NE7       29.74S FOG
6HR MIN TEMP:  52; 6HR MAX TEMP:  56; 6HR PCP:  0.02;

BIG RAPIDS     DRIZZLE   40  37  90 E8        29.85R WCI  35
6HR MIN TEMP:  40; 6HR MAX TEMP:  42; 6HR PCP:  0.11;

COLDWATER      CLOUDY    62  62 100 SE6       29.78F FOG
6HR MIN TEMP:  57; 6HR MAX TEMP:  65;

FREMONT        CLOUDY    42  41  95 E12G20    29.80F
HOLLAND        CLOUDY    45  43  93 E9        29.80R
6HR MIN TEMP:  45; 6HR MAX TEMP:  46; 6HR PCP:  0.08;

GRAND RAPIDS   CLOUDY    42  42 100 E12       29.83S
6HR MIN TEMP:  42; 6HR MAX TEMP:  44; 6HR PCP:  0.11;

IONIA          CLOUDY    42  41  97 NE13      29.83F
6HR MIN TEMP:  41; 6HR MAX TEMP:  43; 6HR PCP:  0.01;

KALAMAZOO      CLOUDY    55  52  89 N5        29.78F FOG
6HR MIN TEMP:  51; 6HR MAX TEMP:  66; 6HR PCP:  0.02;

LUDINGTON      CLOUDY    43  40  90 E10       29.84R
6HR MIN TEMP:  42; 6HR MAX TEMP:  45; 6HR PCP:  0.04;

MARSHALL       CLOUDY    64  64  99 SE3       29.78S
6HR MIN TEMP:  50; 6HR MAX TEMP:  64; 6HR PCP:  0.08;

MOUNT PLEASANT LGT RAIN  40  38  94 NE9G16    29.87S WCI  33
6HR MIN TEMP:  40; 6HR MAX TEMP:  42; 6HR PCP:  0.25;

MUSKEGON       LGT RAIN  45  43  93 E12       29.79F FOG
6HR MIN TEMP:  45; 6HR MAX TEMP:  46; 6HR PCP:  0.14;

SOUTH HAVEN    DRIZZLE   49  49  99 E7        29.75F
$$
MIZ016>042-010100-
NORTHERN LOWER MICHIGAN

CITY           SKY/WX    TMP DP  RH WIND       PRES   REMARKS
ALPENA         CLOUDY    37  36  96 E18G28    29.95F WCI  27
6HR MIN TEMP:  36; 6HR MAX TEMP:  37; 6HR PCP:  0.38;

BEAVER ISLAND  CLOUDY    37  36  94 E18       29.98S FOG     WCI  27
BELLAIRE       CLOUDY    38  33  82 NE13G18   29.90F WCI  30
6HR MIN TEMP:  38; 6HR MAX TEMP:  40;

CADILLAC       CLOUDY    37  36  96 E12G17    29.86R WCI  30
CHARLEVOIX     CLOUDY    38  35  88 NE12G21   29.95F WCI  31
6HR MIN TEMP:  38; 6HR MAX TEMP:  39;

FRANKFORT      CLOUDY    41  35  79 E7        29.89R
GAYLORD        CLOUDY    36  33  89 NE16G24   29.89F WCI  26
6HR MIN TEMP:  36; 6HR MAX TEMP:  38; 6HR PCP:  0.20;

GRAYLING       CLOUDY    36  34  92 NE14G23   29.89F WCI  27
HARBOR SPRINGS CLOUDY    37  35  93 E20G29    29.93F WCI  26
HOUGHTON LAKE  CLOUDY    37  34  89 E15G24    29.88F WCI  28
6HR MIN TEMP:  37; 6HR MAX TEMP:  39; 6HR PCP:  0.15;

MANISTEE       CLOUDY    43  38  82 E9        29.86R
OSCODA         CLOUDY    39  37  94 NE17G24   29.90F WCI  29
6HR MIN TEMP:  38; 6HR MAX TEMP:  40; 6HR PCP:  0.38;

PELLSTON       CLOUDY    37  36  96 E15G24    29.97F WCI  28
6HR MIN TEMP:  36; 6HR MAX TEMP:  38; 6HR PCP:  0.03;

ROGERS CITY    CLOUDY    36  35  94 E16       30.00F FOG     WCI  26
TRAVERSE CITY  CLOUDY    40  36  86 E6        29.88F
6HR MIN TEMP:  40; 6HR MAX TEMP:  43; 6HR PCP:  0.10;

$$
MIZ007>008-015-010100-
EASTERN UPPER MICHIGAN

CITY           SKY/WX    TMP DP  RH WIND       PRES   REMARKS
KINROSS        CLOUDY    38  35  89 E8        30.00F WCI  32
6HR MIN TEMP:  38; 6HR MAX TEMP:  43; 6HR PCP: TRACE;

MACKINAC ISLAN CLOUDY    37  37 100 E13G18    29.98F WCI  28
6HR MIN TEMP:  35; 6HR MAX TEMP:  37; 6HR PCP:  0.01;

NEWBERRY       CLOUDY    38  35  89 E8        29.99F WCI  32
6HR MIN TEMP:  38; 6HR MAX TEMP:  48;

S. S. MARIE    CLOUDY    41  36  82 NE3       30.01F
6HR MIN TEMP:  40; 6HR MAX TEMP:  47; 6HR PCP:  0.01;

MUNISING         N/A     46  32  58 SE7       29.97F
6HR MIN TEMP:  40; 6HR MAX TEMP:  46;

$$
MIZ004>006-011>014-085-010100-
CENTRAL UPPER MICHIGAN

CITY           SKY/WX    TMP DP  RH WIND       PRES   REMARKS
MANISTIQUE     CLOUDY    39  36  87 NE12      29.98F WCI  32
6HR MIN TEMP:  38; 6HR MAX TEMP:  41;

ESCANABA       CLOUDY    40  35  83 E13       29.97F WCI  32
6HR MIN TEMP:  40; 6HR MAX TEMP:  43;

MENOMINEE      LGT RAIN  38  36  92 E14G23    29.94F FOG     WCI  30
6HR MIN TEMP:  37; 6HR MAX TEMP:  38; 6HR PCP: TRACE;

SAWYER-GWINN   CLOUDY    39  28  65 NE6       29.97F WCI  35
$$
MIZ001>003-009>011-084-010100-
WESTERN UPPER MICHIGAN

CITY           SKY/WX    TMP DP  RH WIND       PRES   REMARKS
IRON MOUNTAIN  CLOUDY    41  35  79 E10G20    29.93F
6HR MIN TEMP:  41; 6HR MAX TEMP:  49;

HOUGHTON       CLOUDY    44  17  33 E10       29.97F
6HR MIN TEMP:  43; 6HR MAX TEMP:  47;

COPPER HARBOR    N/A     41  25  53 CALM      30.01F
6HR MIN TEMP:  40; 6HR MAX TEMP:  43;

IRONWOOD       CLOUDY    42  22  44 E12       29.93F
6HR MIN TEMP:  41; 6HR MAX TEMP:  51; 6HR PCP: TRACE;

$$

ABBREVIATIONS USED IN REMARKS
   TC - TEMPERATURE IN CELSIUS
  WCI - WIND CHILL INDEX
   HX - HEAT INDEX
  VSB - VISIBILITY





USA.gov is the U.S. government's official web portal to all federal, state and local government web resources and services.